Theta_e
333 333 333 334 336 336 335 332 332 335 336 334 333 332 333 333 333 333 334 334 334 335 336 338 338 338 337 335 335 335 335 334 333 332 332 332 332 332 332 330 330 330 330 329 327 327 327 325 325 326 326 327 326 328 333 336 334 333 333 333 332 332
330 331 331 334 336 336 335 332 332 335 335 333 332 332 332 333 333 333 334 334 334 335 335 336 337 337 337 336 335 335 335 335 333 333 333 332 332 332 331 329 329 327 326 326 326 326 326 325 324 325 326 327 327 330 333 335 335 333 333 332 331 331
329 330 330 334 337 336 335 332 332 334 334 332 331 331 331 332 333 334 335 334 334 335 335 335 336 337 337 336 335 335 335 334 333 333 332 332 331 331 330 328 326 324 321 322 323 324 325 325 324 324 325 327 328 331 332 334 335 333 332 332 331 330
328 329 330 334 335 335 334 332 332 332 332 331 330 331 331 333 335 336 335 334 335 335 335 336 336 337 337 337 336 335 334 333 333 332 333 331 331 330 329 327 323 322 321 321 321 322 324 327 327 325 325 325 329 331 330 333 335 333 333 331 330 329
327 328 329 332 334 333 331 331 331 331 331 331 332 332 332 333 335 336 336 335 335 336 336 337 337 336 336 337 337 336 334 334 333 333 333 331 331 330 329 326 323 326 326 322 322 324 326 329 329 328 327 325 329 330 327 330 334 334 333 331 330 329
327 328 329 330 331 330 330 330 330 331 331 332 333 333 333 333 334 335 335 335 335 336 336 337 337 337 336 337 337 336 335 335 334 333 332 332 331 329 329 328 326 329 330 327 327 329 329 330 330 330 329 327 328 328 325 329 334 334 332 331 330 329
329 329 330 329 330 330 329 329 330 331 331 332 334 333 333 333 334 334 334 335 335 336 336 336 337 337 337 337 337 336 335 335 334 333 333 333 332 330 331 331 330 331 332 330 330 331 331 331 330 330 330 328 326 326 326 329 334 334 332 331 329 329
332 331 332 332 331 330 329 329 329 330 331 331 333 333 333 333 334 334 334 335 335 335 336 335 335 336 337 337 336 336 335 335 334 334 333 333 333 333 334 333 333 332 332 331 331 331 331 331 330 330 330 330 328 327 327 330 334 334 332 332 331 330
336 335 335 334 333 332 331 330 330 331 332 332 333 334 334 334 334 334 335 335 335 335 335 336 334 335 336 336 336 336 335 335 335 334 333 333 333 334 335 334 334 333 333 332 331 330 330 330 330 329 330 330 329 328 328 330 333 333 333 332 332 332
339 338 337 337 336 336 334 331 331 333 334 334 336 336 336 335 335 335 336 336 336 335 335 335 335 335 336 336 336 335 335 335 335 334 334 334 333 333 334 334 334 333 334 333 332 330 330 330 329 328 329 330 330 329 328 329 331 332 332 333 333 333
341 339 339 340 340 338 336 334 335 337 337 337 336 336 336 336 336 336 336 336 336 335 335 334 335 336 336 336 335 334 334 335 335 334 334 334 333 333 333 333 334 334 333 333 331 330 330 330 329 328 328 329 329 329 329 328 329 331 332 333 333 334
341 341 341 341 341 340 338 337 338 338 338 338 336 336 336 336 337 336 336 336 336 336 335 334 335 336 336 336 335 334 334 335 334 334 334 333 333 333 333 334 334 333 334 333 331 330 330 330 329 328 328 327 327 328 329 328 328 331 332 333 333 333
342 341 341 340 340 340 339 339 339 338 338 337 336 335 335 336 337 336 336 336 336 336 336 335 335 335 336 336 335 334 334 333 333 333 333 333 333 332 333 333 333 333 333 332 331 332 331 330 329 329 329 328 327 327 327 327 328 332 333 333 333 333
342 341 340 339 339 338 338 338 338 337 337 335 335 334 335 335 335 335 336 336 336 336 336 335 335 334 335 335 334 334 333 332 332 333 332 332 332 332 333 333 333 334 333 332 332 332 331 331 329 328 329 328 328 328 327 326 327 331 333 333 333 333
340 339 338 338 338 337 337 337 336 335 335 334 333 333 334 334 334 335 335 335 336 336 336 335 335 334 334 335 334 333 333 333 333 333 332 332 332 332 333 333 333 334 333 332 332 332 331 330 329 329 329 329 328 328 328 327 327 329 332 333 333 332
338 337 336 335 336 335 335 335 334 333 332 332 331 332 333 333 334 335 335 335 335 335 335 335 334 334 334 334 334 333 333 333 333 333 332 332 333 333 333 333 333 333 333 332 332 331 330 330 329 329 329 328 329 329 329 328 328 328 329 332 333 332
337 336 336 335 335 334 333 333 333 331 330 330 330 331 332 332 334 334 333 334 333 334 334 334 334 334 333 333 334 333 333 333 333 333 332 332 333 333 332 332 333 333 333 333 332 331 330 330 329 329 329 328 328 328 329 329 328 328 328 330 332 332
335 334 333 333 333 333 332 332 331 330 330 329 331 332 332 331 332 332 332 332 332 332 332 332 332 332 332 331 331 332 332 332 332 331 332 332 333 332 332 331 333 333 332 333 333 331 330 330 329 329 329 329 329 329 329 329 329 329 329 329 330 330
333 332 332 331 332 332 332 331 332 332 331 330 331 332 331 331 331 331 331 331 331 331 330 330 330 330 329 330 329 329 330 331 331 331 331 332 332 332 331 330 331 332 332 333 333 331 331 330 330 329 329 329 329 329 330 329 329 328 327 328 328 328
332 331 331 331 331 331 330 330 331 331 331 330 331 331 332 331 331 330 330 329 329 328 329 329 328 326 326 327 327 327 328 329 330 330 330 331 331 332 332 331 331 332 332 332 332 331 331 331 330 330 329 329 330 330 330 329 329 328 327 326 326 326
330 330 330 330 329 328 328 327 327 327 328 328 329 329 329 329 328 327 327 327 326 326 327 326 325 324 324 326 326 326 327 328 329 329 329 329 330 331 331 331 331 331 331 331 331 331 331 331 331 330 330 330 330 330 330 329 330 329 328 326 325 324
328 329 328 327 327 327 326 325 324 325 326 326 326 326 325 325 324 324 323 322 322 323 324 323 323 323 324 325 325 326 327 328 329 329 329 329 329 330 330 330 330 330 330 330 330 330 331 330 330 330 329 330 331 331 330 329 329 329 328 326 325 324
327 327 326 324 323 324 325 324 324 325 326 325 324 324 323 322 322 322 321 321 320 321 322 323 322 322 324 325 325 326 327 327 328 328 327 328 328 329 330 330 330 330 330 330 329 329 330 330 330 329 329 330 332 333 333 330 329 329 328 328 327 326
327 327 326 324 322 322 323 324 324 325 325 324 323 322 321 321 321 321 322 322 322 322 322 322 322 322 323 323 322 323 324 325 327 327 327 326 327 328 329 329 329 329 330 329 329 329 330 329 330 330 329 329 329 331 335 332 329 329 329 328 329 328
329 328 327 324 323 323 323 324 325 325 325 323 322 321 320 321 322 322 322 322 322 321 322 321 321 321 321 320 319 320 322 323 326 327 325 323 324 326 327 328 328 329 329 329 329 328 329 329 330 330 329 329 330 332 335 331 329 330 328 327 327 327
329 326 325 324 324 323 322 323 325 324 323 322 321 321 321 322 323 322 322 322 321 321 321 320 320 320 319 318 317 317 318 320 323 323 321 321 321 322 325 327 328 328 329 329 328 328 329 329 329 329 328 329 330 331 332 329 330 331 329 327 326 326
328 327 326 326 326 324 322 323 324 324 323 320 321 321 320 322 323 322 322 322 321 320 320 321 320 319 316 315 315 315 315 316 317 318 318 319 320 321 323 325 326 327 327 327 327 327 327 327 328 328 328 329 328 328 328 328 330 332 333 331 328 326
329 328 327 326 326 324 323 323 323 323 321 319 321 321 321 322 323 322 322 321 320 319 318 319 319 318 315 314 314 314 313 312 313 315 316 316 317 319 320 321 322 325 326 326 325 325 326 326 326 326 327 327 326 326 326 326 327 328 332 334 331 328
330 326 325 325 324 324 324 324 324 321 320 320 321 321 321 322 322 322 321 319 319 318 316 316 316 316 315 314 314 314 312 311 311 312 314 315 316 317 317 318 320 322 323 322 321 321 321 321 323 324 325 325 325 325 324 324 324 324 328 331 332 329
330 324 323 324 324 324 324 324 322 319 319 320 321 321 321 322 321 320 319 319 319 317 314 314 315 314 314 314 314 314 314 314 314 313 313 315 315 315 314 316 318 319 319 318 317 317 317 317 319 321 323 324 324 324 321 319 319 321 323 323 325 322
328 324 324 323 323 324 323 321 319 318 320 320 320 321 320 320 321 320 319 318 318 315 314 313 314 314 314 315 316 316 316 316 317 315 315 316 316 316 315 315 316 317 316 315 315 316 316 316 317 317 319 319 319 318 317 316 315 317 318 319 321 319
327 324 324 323 323 322 321 318 318 319 321 320 321 320 319 319 320 319 318 317 316 315 315 314 313 313 313 315 316 316 316 317 318 316 315 315 315 315 314 313 315 317 317 315 315 316 316 315 316 316 315 315 316 316 316 316 316 315 316 316 318 316
327 325 324 324 323 321 318 318 320 322 321 320 320 319 318 320 320 319 317 315 316 315 316 314 313 312 312 313 315 316 316 316 317 316 314 314 312 311 309 308 310 315 318 317 316 315 315 315 314 315 314 314 315 315 316 316 315 315 314 313 313 313
327 326 325 324 322 319 317 319 322 322 321 321 319 317 319 321 319 318 316 314 315 315 314 313 311 310 311 312 313 314 315 316 316 315 315 315 314 311 309 306 306 308 312 315 317 316 315 314 314 313 313 314 314 314 314 315 314 313 313 313 313 313
327 325 324 323 320 318 319 320 321 322 321 321 319 317 319 321 319 318 316 315 314 313 311 311 310 310 312 313 313 312 311 313 314 314 315 315 315 314 310 306 305 305 305 308 313 316 315 314 314 312 311 312 314 313 312 312 313 313 312 312 311 312
326 324 322 323 321 318 319 320 321 321 321 320 319 316 319 320 318 318 318 316 315 313 311 312 311 311 314 315 314 313 309 308 310 312 315 315 315 315 313 309 307 308 308 307 308 313 315 314 313 312 310 310 311 310 308 308 311 312 312 311 310 310
326 324 322 323 322 318 318 320 322 322 321 320 318 316 317 318 318 318 318 318 317 316 314 314 313 312 314 315 314 313 310 308 308 310 314 315 314 314 314 312 310 310 311 311 309 310 314 314 313 312 310 308 307 307 306 306 309 311 310 309 309 309
Wind_Speed
21 21 21 22 21 20 19 19 18 17 17 17 16 15 13 12 12 11 10 10 10 9 9 9 8 8 7 7 8 8 8 7 7 7 6 6 6 6 6 5 5 4 3 2 1 1 2 2 2 3 4 4 4 6 7 6 7 12 12 11 9 7
21 21 22 22 21 20 19 19 19 18 18 17 15 15 13 12 12 11 11 10 10 9 9 9 8 8 7 7 7 7 7 7 6 6 6 5 5 6 6 5 5 4 3 2 2 2 2 3 2 2 3 4 5 7 7 6 6 11 12 11 9 7
22 21 22 22 22 21 20 20 19 18 17 16 15 14 14 13 12 11 11 10 10 10 10 10 9 8 7 7 7 7 7 7 6 6 6 5 5 6 5 5 4 3 2 2 3 3 3 3 3 2 2 3 5 6 6 6 6 9 12 11 9 7
23 21 22 22 22 21 21 20 19 17 16 15 14 13 13 12 11 11 11 11 11 10 10 9 9 8 8 8 8 8 8 8 7 7 7 6 6 6 5 5 3 2 2 2 2 3 4 4 3 3 2 2 4 4 4 5 6 8 10 11 9 7
22 22 21 21 21 21 21 20 18 16 15 14 14 13 12 12 11 11 11 11 11 10 10 9 9 9 8 7 8 8 9 9 8 7 8 8 7 7 6 5 4 3 3 2 3 4 5 3 2 2 3 3 4 4 3 3 5 7 9 10 9 7
22 21 21 21 21 20 20 19 18 16 15 15 14 14 13 13 12 12 11 11 11 11 10 9 9 9 7 7 8 9 10 10 9 8 8 8 8 7 6 5 5 5 4 4 4 4 4 2 3 3 3 5 6 5 4 4 6 7 8 10 9 7
23 22 21 21 21 20 20 19 18 17 16 16 14 14 14 14 13 13 12 12 12 11 11 10 9 9 7 7 8 9 10 10 10 11 10 9 8 7 6 5 4 5 4 3 3 3 3 3 4 5 4 4 6 6 5 7 8 8 9 10 8 7
24 23 22 22 21 21 20 19 18 18 18 16 14 13 13 13 13 13 12 11 11 11 11 10 10 9 8 8 8 9 10 10 11 12 12 10 9 8 6 6 5 4 4 4 4 4 4 4 5 6 6 4 6 8 7 9 11 10 10 11 8 6
26 25 23 22 22 21 20 20 19 18 17 16 14 13 13 13 13 13 12 12 11 10 10 9 9 10 10 10 9 9 8 9 9 11 12 12 11 10 9 8 8 7 7 6 6 6 6 5 4 5 8 6 7 9 9 11 13 12 12 11 9 7
26 24 23 22 21 21 21 20 19 18 16 16 14 13 14 13 13 13 12 12 11 11 9 9 9 10 11 10 9 8 8 7 8 10 12 12 12 11 11 10 10 10 10 10 9 7 6 6 1 2 7 10 10 11 10 12 14 13 13 12 9 8
24 23 23 22 21 22 22 21 19 17 16 15 14 14 14 14 14 13 12 10 10 10 9 9 10 10 10 9 9 9 8 7 8 9 10 11 12 12 12 11 10 9 10 11 10 7 6 6 2 3 1 5 8 11 11 12 15 15 15 14 11 10
24 24 24 22 21 22 21 20 18 17 16 15 14 14 13 13 13 12 11 10 10 10 9 9 10 10 9 9 9 9 8 8 8 9 10 11 12 12 12 10 9 8 9 9 8 7 6 6 4 3 4 3 3 9 10 11 15 17 16 15 12 11
24 24 23 21 20 20 20 19 18 16 15 13 12 11 11 10 10 11 11 10 10 11 10 11 11 10 10 9 9 8 7 7 9 10 11 10 10 11 11 9 8 8 8 8 7 6 5 5 5 5 3 3 3 3 7 9 15 19 18 16 15 14
23 22 21 20 20 19 19 18 16 15 12 10 9 9 9 9 9 10 10 9 9 9 10 9 9 10 10 8 7 6 6 7 9 9 10 10 9 9 9 9 9 7 7 8 6 5 4 4 4 4 1 2 4 2 3 6 11 17 19 17 17 16
23 21 20 20 19 19 18 16 14 12 10 9 8 8 8 9 9 9 8 8 8 8 8 7 7 8 8 7 6 5 6 7 8 9 9 8 8 9 8 8 9 8 8 9 7 5 5 5 4 3 1 1 2 4 5 7 8 11 15 17 18 18
23 21 20 20 20 18 16 15 13 11 10 9 8 7 8 8 9 8 6 6 5 5 6 6 7 7 7 7 6 5 6 6 7 8 8 7 7 8 7 7 8 8 9 10 9 7 6 5 3 3 2 1 2 2 5 9 9 8 9 14 18 19
24 21 21 20 20 18 16 15 14 12 10 9 7 7 8 8 7 7 7 6 5 4 5 5 6 7 6 6 6 6 7 7 8 8 7 7 8 8 7 6 8 10 12 13 10 8 6 4 2 1 2 2 3 4 3 7 10 9 8 9 13 16
24 22 21 20 20 18 17 16 14 13 11 10 9 9 9 9 8 8 8 8 7 7 6 6 5 5 4 3 3 4 5 7 7 7 6 7 8 8 7 6 7 11 12 11 9 7 6 4 2 1 1 1 2 5 4 3 8 10 10 11 10 10
23 22 21 21 21 20 18 16 15 14 13 11 12 12 11 10 10 9 8 8 8 7 7 7 7 6 5 4 5 4 3 3 4 5 5 6 7 7 7 7 8 10 11 10 9 7 6 4 3 3 2 2 0 3 5 4 4 7 9 11 11 10
25 24 23 23 23 22 20 18 17 16 14 13 14 14 12 12 12 11 9 9 8 7 6 7 7 6 6 7 7 7 6 5 5 4 5 6 7 8 8 8 7 7 8 9 8 7 6 4 3 3 3 2 0 2 3 4 5 5 5 6 7 6
28 27 26 26 26 25 23 22 20 19 18 17 17 17 16 15 14 13 11 10 8 7 8 8 6 6 7 7 7 7 7 8 7 6 5 5 6 8 8 7 6 5 5 6 5 5 5 4 3 2 2 4 3 2 3 4 4 4 4 5 5 3
27 27 27 26 26 25 23 22 21 21 22 22 20 19 18 16 14 11 10 9 7 7 9 8 6 6 7 8 8 7 7 8 8 7 7 6 6 7 8 7 6 6 5 5 3 3 5 4 2 1 1 2 4 4 4 4 4 3 3 4 5 5
27 26 25 24 24 24 22 20 19 21 21 20 18 16 15 14 12 11 9 9 8 8 10 9 7 6 8 10 10 8 8 8 9 9 10 10 9 8 7 5 5 5 5 5 4 3 4 4 4 3 3 2 2 2 3 4 3 2 2 2 3 4
27 26 24 23 23 22 21 20 20 20 19 17 16 14 13 13 12 12 11 9 8 8 9 9 9 8 11 13 11 9 8 8 9 10 11 13 12 10 8 5 4 3 4 6 5 4 3 5 5 4 3 1 1 2 1 3 2 1 1 1 0 0
28 26 25 24 23 22 22 23 23 21 18 17 16 14 14 14 14 13 12 11 11 10 10 10 10 10 12 12 12 11 9 8 10 10 11 12 12 11 10 7 6 4 4 6 5 4 4 5 7 6 4 2 1 1 2 2 2 1 2 3 2 2
27 26 26 24 23 22 23 24 24 23 21 19 17 15 15 16 15 14 13 12 12 11 9 10 10 11 11 11 11 11 11 11 11 11 10 10 10 10 10 9 8 6 5 4 3 4 5 5 7 7 5 3 1 1 2 1 1 1 3 3 2 2
25 23 24 23 22 23 24 25 24 23 21 20 19 16 16 17 15 13 12 11 10 8 7 8 8 9 11 11 11 10 10 11 11 10 9 7 8 8 9 9 8 7 7 5 4 5 6 5 4 4 5 3 2 1 1 2 2 1 1 2 3 4
23 21 24 24 24 25 26 26 25 23 22 21 20 19 18 17 15 13 11 9 8 7 6 7 8 9 10 10 10 10 9 9 10 9 8 8 8 8 8 9 8 8 8 8 6 6 7 5 4 3 3 3 1 1 2 3 2 2 2 0 3 4
22 23 26 27 27 26 26 27 26 24 23 22 21 20 20 18 15 13 12 10 9 8 8 9 10 11 12 12 11 11 11 12 13 11 10 10 9 9 9 9 9 9 9 10 9 9 9 7 5 4 3 2 2 3 5 5 5 5 4 3 1 3
23 26 28 27 28 28 27 27 27 26 25 24 24 23 21 19 17 15 14 13 11 10 10 11 11 12 14 13 12 11 12 13 14 14 13 12 10 10 9 10 10 10 10 11 10 10 10 10 8 8 7 5 5 6 7 7 8 7 6 5 3 2
23 26 27 27 27 27 27 26 26 27 26 26 27 26 23 21 19 18 17 16 13 12 12 12 11 12 13 13 12 10 11 12 12 12 12 10 10 9 9 9 10 10 10 10 10 10 11 11 12 13 12 11 10 10 8 7 8 8 7 5 4 1
24 25 26 27 27 25 25 25 26 27 27 28 29 27 26 25 23 21 19 17 16 15 13 12 12 13 13 12 12 11 10 10 10 10 10 9 8 8 8 8 9 10 10 10 10 11 12 12 12 13 13 12 12 11 10 10 9 9 8 6 5 2
25 26 26 26 26 26 25 25 26 27 28 28 28 27 27 27 25 22 20 20 19 18 16 14 13 14 14 13 12 11 10 9 9 8 8 8 8 7 7 9 9 9 9 10 9 10 11 11 11 12 12 11 11 11 12 11 9 10 9 8 8 5
27 29 30 28 26 26 25 24 25 28 28 28 26 26 27 27 26 22 21 22 21 19 18 16 15 15 15 14 12 11 11 10 9 8 7 7 7 7 7 8 9 9 8 8 8 9 9 9 10 10 9 9 11 12 11 10 9 9 9 9 10 7
23 21 23 26 28 28 24 20 23 28 28 27 25 25 27 26 25 23 22 22 20 19 18 16 16 16 15 14 12 11 11 11 11 9 7 6 5 5 5 6 8 8 9 8 8 9 8 8 9 8 7 7 8 9 8 8 8 9 10 11 10 10
21 16 13 18 26 30 25 19 23 28 28 26 25 25 26 25 23 23 21 20 18 17 16 15 16 16 16 14 12 11 10 11 11 10 8 6 5 4 3 4 6 7 8 8 7 9 8 7 7 7 6 6 6 7 8 7 7 8 9 9 10 10
21 23 21 20 23 28 27 20 22 28 28 26 24 24 24 23 22 23 21 18 17 16 15 15 14 15 15 14 11 10 9 9 10 11 10 8 6 4 1 2 4 5 6 6 7 7 7 6 6 5 6 6 6 8 9 9 8 7 7 7 8 8
Wind_Direction
150 150 149 146 148 152 156 161 165 168 169 171 170 170 173 172 173 172 173 174 170 167 163 161 160 159 157 152 146 142 139 132 133 137 137 137 136 142 143 144 145 151 165 177 179 163 157 141 139 127 115 117 94 92 88 80 147 171 175 169 164 154
155 156 154 152 154 157 163 169 172 174 174 175 173 174 178 179 179 175 175 175 173 171 171 171 166 165 162 157 151 144 142 139 142 147 147 150 152 156 153 154 159 166 179 204 222 197 178 169 161 145 128 120 103 102 92 81 138 174 181 175 170 163
159 161 161 158 160 162 169 175 177 180 179 179 180 182 183 186 182 177 178 177 177 177 177 179 173 171 168 163 159 154 155 157 159 162 163 166 171 170 166 165 163 165 172 195 207 196 182 171 165 166 147 119 110 108 97 87 124 171 188 184 176 169
164 168 168 164 165 169 175 180 183 184 184 184 187 190 191 193 188 183 185 186 186 183 182 183 176 175 174 172 170 172 180 182 179 177 178 183 185 184 183 180 168 157 165 198 195 179 170 158 146 155 181 146 123 119 106 101 131 167 194 193 180 173
168 172 172 170 170 175 182 185 186 188 192 192 192 197 200 203 200 195 195 198 198 191 187 187 187 186 184 181 179 188 201 199 192 190 194 199 198 197 199 192 176 157 151 166 159 154 162 162 164 176 203 190 158 154 140 130 155 171 196 195 182 176
171 175 177 177 175 181 187 190 191 192 199 199 198 202 205 210 211 206 204 208 208 201 194 194 197 198 201 197 193 205 211 204 199 200 207 210 207 204 207 204 187 171 152 154 162 160 176 214 256 242 219 198 189 197 195 180 173 174 191 193 184 180
174 178 180 180 181 187 193 196 195 197 204 205 203 205 207 210 211 209 210 214 213 211 208 204 200 198 209 209 205 215 215 208 204 206 210 210 209 206 208 216 204 190 173 177 200 205 219 252 288 267 227 200 202 209 213 201 185 175 181 189 185 178
177 183 183 184 187 192 198 200 200 203 208 211 210 211 213 211 209 209 211 216 214 215 216 213 209 204 207 207 204 210 212 210 210 212 213 209 210 208 210 227 234 231 220 216 227 242 256 272 307 275 220 202 216 215 225 209 192 182 178 186 187 180
177 184 184 186 189 195 201 203 204 207 211 217 219 220 220 218 217 213 211 212 210 209 210 212 213 205 197 197 199 204 210 213 216 219 216 214 217 214 214 224 238 251 251 249 248 256 267 262 307 278 220 217 226 226 234 210 194 192 186 187 190 187
175 182 184 188 191 197 202 204 207 209 213 219 222 224 222 221 221 216 209 208 208 206 203 200 197 193 190 192 197 202 211 221 227 224 217 218 222 221 222 227 235 249 257 258 258 258 262 250 286 322 231 232 237 238 240 214 201 201 195 194 197 192
177 184 187 190 194 198 202 206 209 211 213 217 221 224 221 217 214 211 208 202 201 204 202 192 185 187 191 195 201 206 215 222 227 226 222 220 220 223 227 230 235 248 253 252 256 260 264 251 243 21 289 250 248 242 241 222 210 208 201 200 200 197
181 185 189 191 194 198 201 204 208 209 210 213 216 218 219 217 210 206 206 199 196 200 202 199 194 192 194 202 211 215 218 221 227 228 226 223 222 226 228 230 235 246 246 241 250 260 263 252 249 323 360 8 277 240 239 230 213 207 204 204 203 199
183 186 189 191 193 196 197 199 203 205 208 213 214 214 216 218 215 208 204 200 200 201 204 206 204 198 196 209 221 218 216 214 221 224 222 223 226 229 230 231 236 245 239 229 238 247 254 265 276 302 338 17 351 249 235 231 212 205 203 203 203 201
183 186 188 191 193 195 197 197 199 202 207 213 213 216 219 213 210 210 205 200 201 203 207 209 207 202 199 205 211 207 207 206 211 218 219 223 229 232 235 240 245 248 224 208 223 240 246 266 282 289 306 20 18 53 176 197 200 205 207 206 203 202
183 185 187 189 194 196 198 196 194 193 193 195 197 203 205 194 191 195 197 199 201 202 204 206 204 203 202 202 201 201 210 214 215 219 222 227 230 230 235 244 247 240 209 195 211 239 246 247 253 261 247 79 65 81 115 138 156 185 202 211 210 207
183 187 188 189 192 192 190 190 185 175 169 174 180 181 177 174 172 170 172 182 194 196 198 209 216 212 209 212 215 213 218 227 225 221 222 225 223 222 227 231 225 220 211 206 212 223 228 225 219 228 234 182 149 141 106 111 126 145 174 206 216 211
183 186 187 185 187 184 178 178 173 161 157 160 161 160 156 152 147 142 139 137 141 157 174 193 212 213 206 212 217 211 215 222 223 221 222 226 224 218 215 205 197 205 215 216 218 222 221 211 188 223 255 251 212 207 150 104 109 115 131 176 207 212
178 178 180 180 184 180 171 167 166 163 160 153 148 151 147 140 135 127 123 122 122 128 134 138 155 168 163 174 181 186 210 218 219 223 222 221 220 212 200 194 196 206 216 219 222 228 230 228 222 281 324 315 236 219 217 139 115 116 121 136 159 176
174 173 171 171 172 170 167 165 169 175 174 166 158 157 154 150 144 132 125 125 124 124 123 119 122 125 123 131 128 129 168 193 199 208 207 203 204 200 187 191 205 210 216 220 226 233 239 246 247 257 299 356 331 208 213 203 158 141 132 131 136 139
170 167 161 158 157 158 160 158 163 170 172 170 167 164 161 156 147 138 133 128 123 121 125 125 119 114 118 125 121 117 124 124 129 152 172 183 192 198 189 187 199 210 218 218 219 226 234 248 258 261 272 296 346 177 199 199 194 195 178 156 146 137
166 165 162 160 158 158 158 153 151 151 146 146 150 149 146 145 139 133 132 132 128 120 120 121 119 119 128 134 122 115 119 119 119 124 133 144 164 182 182 179 183 195 215 212 206 217 228 240 262 299 292 277 272 251 232 215 204 216 220 219 217 212
169 170 169 168 165 164 162 158 152 144 138 136 139 139 136 136 134 129 128 128 130 134 130 125 128 129 132 136 121 112 118 117 117 117 111 104 121 151 162 167 177 184 191 192 188 207 220 226 231 220 45 329 304 288 269 254 242 242 233 235 238 235
176 174 172 169 165 164 163 162 155 146 143 138 135 137 134 132 132 129 126 121 117 132 137 132 136 133 121 124 120 117 120 114 115 112 102 96 96 115 138 157 180 192 186 171 148 145 180 181 172 158 107 47 343 329 301 289 282 279 271 244 239 239
174 172 170 167 163 163 162 162 157 149 148 141 135 136 134 130 129 124 124 125 122 130 135 128 128 125 113 111 110 114 122 120 116 107 99 97 93 95 105 123 150 171 176 164 144 124 148 159 167 167 126 95 63 55 313 304 345 358 10 46 96 330
174 173 172 170 168 168 164 160 152 144 142 138 135 137 134 129 127 123 122 123 124 130 131 121 118 120 114 107 102 102 110 122 123 114 106 101 99 98 98 102 110 119 154 166 153 134 142 158 176 184 158 136 82 48 237 264 15 19 36 52 64 54
179 177 175 175 176 175 168 161 154 148 145 140 137 140 140 137 133 129 126 122 123 128 127 119 114 114 114 109 103 99 99 109 118 118 112 102 97 95 96 102 102 106 130 150 152 140 140 155 178 191 181 171 220 294 220 172 95 358 13 41 63 57
183 183 182 181 183 179 169 164 162 159 156 151 147 144 145 144 140 135 133 129 125 126 127 126 120 113 115 112 106 102 98 103 113 116 115 107 97 92 94 99 101 108 114 108 112 124 124 130 149 176 189 207 256 339 65 96 133 177 9 31 44 58
186 187 185 182 183 180 173 169 167 164 160 157 151 147 146 147 146 146 144 141 134 124 119 124 124 116 115 114 108 102 95 97 111 118 118 114 109 107 105 100 100 108 112 103 95 99 101 92 90 117 155 185 221 68 68 68 83 109 138 107 2 28
187 180 174 174 177 177 175 171 168 164 160 158 154 150 150 149 151 153 146 143 138 124 116 119 122 116 112 113 110 103 93 89 97 102 103 107 112 115 114 109 107 110 114 107 96 91 87 78 84 100 111 128 103 76 70 67 62 63 84 91 15 348
186 176 168 169 173 172 171 171 169 166 160 159 158 154 154 154 154 152 146 144 142 132 127 126 126 121 118 117 113 106 97 89 89 91 92 96 105 111 115 118 116 117 119 114 107 102 93 88 93 97 101 109 97 80 71 61 56 61 69 74 77 15
184 178 173 172 173 172 172 173 172 167 163 163 162 158 156 157 158 157 153 151 151 145 136 133 134 134 129 125 121 115 103 94 89 86 85 89 96 100 105 115 121 122 122 122 121 117 106 101 100 99 101 103 97 90 85 74 65 70 76 72 79 27
182 183 182 179 178 177 176 176 173 170 168 167 165 162 158 159 162 163 160 158 157 154 149 145 144 144 143 139 133 125 114 105 98 91 87 87 90 92 95 106 119 124 120 118 121 120 112 108 106 104 101 99 98 94 91 92 86 77 76 75 85 69
181 186 189 186 182 179 177 175 173 173 173 171 170 168 163 162 166 168 167 165 163 162 163 160 154 151 152 151 147 141 132 123 117 109 100 93 92 93 95 100 108 119 123 119 116 113 109 105 102 103 102 97 96 93 91 93 88 81 79 74 71 54
183 188 191 188 183 178 175 176 178 179 178 176 175 173 168 167 169 172 173 172 172 171 169 166 161 157 154 150 150 151 148 142 139 134 121 112 103 94 90 95 99 106 116 123 122 111 103 102 96 94 98 96 91 88 88 88 83 80 78 71 63 42
184 186 190 188 182 175 172 178 185 185 183 181 181 177 173 172 173 176 177 176 178 178 174 168 162 158 155 152 150 151 155 155 155 153 143 136 126 99 81 92 101 99 97 109 128 123 108 103 95 83 87 97 92 82 75 78 83 81 74 67 61 51
180 180 189 195 187 175 172 181 188 188 188 185 183 180 176 176 178 181 181 181 182 181 177 171 164 161 159 158 157 154 154 155 158 160 156 152 149 129 83 91 113 112 101 99 118 130 123 110 99 82 78 87 90 81 71 76 89 87 78 66 60 57
177 181 188 200 196 178 172 183 192 192 192 188 184 182 180 180 183 186 187 188 187 184 179 176 172 168 166 166 166 164 160 156 157 162 162 159 158 157 122 97 119 123 114 104 107 128 136 126 111 96 81 72 80 90 80 77 88 88 78 64 58 56